Regional Weather Roundup
Issued by NWS Binghamton, NY

Home | Current Version | Previous Version | Text Only | Print | Product List | Glossary On
Versions: 1 2 3 4 5 6 7 8 9 10 11 12 13 14 15 16 17 18 19 20 21 22 23 24 25 26 27 28 29 30 31 32 33 34 35 36 37 38 39 40 41 42 43 44 45 46 47 48 49 50
000
ASUS41 KBGM 021810
RWRBGM
RWRBGM
BINGHAMTON REGIONAL WEATHER ROUNDUP
NATIONAL WEATHER SERVICE BINGHAMTON NY
200 PM EDT THU JUL 02 2015

Note: "fair" indicates few or no clouds below 12,000 feet with no
significant weather and/or obstructions to visibility.

* = Station(s) that does not report precipitation, such as rain,
snow, etc, also no thunder or fog.

!NYZ009-015>018-022>025-036-037-044>046-055>057-062-021900
...CENTRAL NEW YORK...

CITY           SKY/WX    TMP DP  RH WIND       PRES   REMARKS
BINGHAMTON     PTSUNNY   68  54  60 NW7       29.96R
CORTLAND       PTSUNNY   70  54  56 W7        29.98R
DANSVILLE      MOSUNNY   72  57  59 N8        29.96F
ELMIRA         CLOUDY    71  58  63 E5        29.94R
ITHACA         PTSUNNY   71  55  56 NW7       29.97S
MONTICELLO     PTSUNNY   72  55  56 W9        29.95S
NORWICH        MOSUNNY   70  54  56 NW8       29.95S
PENN YAN       MOSUNNY   71  56  58 VRB5      29.97R
ROME           PTSUNNY   69  51  52 W9G21     29.95S
SIDNEY         PTSUNNY   72  59  64 NW3       29.94S
SYRACUSE       MOSUNNY   71  54  54 NW12      29.95S
$$

!PAZ038>040-043-044-047-048-072-021900
...NORTHEAST PENNSYLVANIA...

CITY           SKY/WX    TMP DP  RH WIND       PRES   REMARKS
SCRANTON       PTSUNNY   77  57  50 NE5       29.93S
TOWANDA*       PTSUNNY   73  55  53 MISG      29.95S
$$
&&
KEY
WCI = WIND CHILL INDEX
VSB = VISIBILITY
HX  = HEAT INDEX
$$


USA.gov is the U.S. government's official web portal to all federal, state and local government web resources and services.